Tekamah, NE

8:40 AM CDT on April 26, 2017 (GMT -0500)
Tekamah

Weather History for KTQE - January, 2014

Change the Weather History Date:

Friday, January 3, 2014

  Actual Average Record
Temperature  
Mean Temperature 18 °F -  
Max Temperature 37 °F 30 °F 60 °F (1964)
Min Temperature -2 °F 11 °F -15 °F (1968)
Degree Days  
Heating Degree Days 48    
Moisture  
Dew Point 12 °F    
Average Humidity 69    
Maximum Humidity 76    
Minimum Humidity 64    
Precipitation  
Precipitation 0.00 in - - ()
Sea Level Pressure  
Sea Level Pressure 29.94 in    
Wind  
Wind Speed 16 mph (South)    
Max Wind Speed 30 mph    
Max Gust Speed 38 mph    
Visibility 10 miles    
Events      
Averages and records for this station are not official NWS values.
T = Trace of Precipitation, MM = Missing Value Source: NWS Daily Summary

Daily Weather History Graph

Daily Weather History Graph

Search for Another Location

Airport or City:

Trip Planner

Search our weather history database for the weather conditions in past years. The results will help you decide how hot, cold, wet, or windy it might be!

Date:

Astronomy

Jan. 03, 2014 Rise Set
Actual Time 7:52 AM CST 5:06 PM CST
Civil Twilight 7:20 AM CST 5:38 PM CST
Nautical Twilight 6:45 AM CST 6:12 PM CST
Astronomical Twilight 6:12 AM CST 6:46 PM CST
Moon 9:16 AM CST (1/3) 8:20 PM CST (1/3)
Length of Visible Light 10h 17m
Length of Day
9h 14m
Waxing Crescent, 8% of the Moon is Illuminated
Jan 3
Waxing Crescent
Jan 7
First Quarter
Jan 15
Full
Jan 23
Last Quarter
Jan 30
New

Hourly Weather History & Observations

Time (CST) Temp. Windchill Dew Point Humidity Pressure Visibility Wind Dir Wind Speed Gust Speed Precip Events Conditions
12:54 AM -2.9 °F -15.0 °F -9.0 °F 75% 30.40 in 10.0 mi SSE 5.8 mph - N/A   Clear
1:36 AM 1.9 °F -14.7 °F -4.0 °F 76% 30.31 in 10.0 mi SE 11.5 mph - N/A   Mostly Cloudy
1:54 AM 3.0 °F -13.3 °F -4.0 °F 73% 30.37 in 10.0 mi SSE 11.5 mph - N/A   Overcast
2:54 AM 5.0 °F -10.8 °F -2.9 °F 70% 30.35 in 10.0 mi SE 11.5 mph - N/A   Mostly Cloudy
3:32 AM 7.0 °F -10.4 °F -2.0 °F 67% 30.26 in 10.0 mi South 15.0 mph - N/A   Overcast
3:54 AM 8.1 °F -9.0 °F -0.9 °F 67% 30.30 in 10.0 mi South 15.0 mph - N/A   Overcast
4:54 AM 8.1 °F -9.6 °F -0.9 °F 67% 30.25 in 10.0 mi SSE 16.1 mph - N/A   Overcast
5:54 AM 9.0 °F -10.0 °F 1.0 °F 70% 30.19 in 10.0 mi South 19.6 mph - N/A   Overcast
6:54 AM 7.0 °F -9.8 °F -0.0 °F 73% 30.16 in 10.0 mi South 13.8 mph - N/A   Clear
7:54 AM 8.1 °F -9.0 °F 1.0 °F 73% 30.11 in 10.0 mi SSE 15.0 mph - N/A   Clear
8:54 AM 10.9 °F -7.5 °F 3.0 °F 70% 30.07 in 10.0 mi South 19.6 mph - N/A   Clear
9:54 AM 15.1 °F -2.5 °F 6.1 °F 68% 30.05 in 10.0 mi South 20.7 mph - N/A   Clear
10:54 AM 18.0 °F 0.2 °F 10.0 °F 71% 29.99 in 10.0 mi South 24.2 mph 32.2 mph N/A   Clear
11:54 AM 21.9 °F 4.5 °F 12.9 °F 68% 29.90 in 10.0 mi South 27.6 mph 34.5 mph N/A   Clear
12:54 PM 26.1 °F 11.3 °F 17.1 °F 69% 29.82 in 10.0 mi South 23.0 mph 29.9 mph N/A   Clear
1:54 PM 33.1 °F 19.1 °F 21.9 °F 64% 29.73 in 10.0 mi South 29.9 mph 38.0 mph N/A   Clear
2:54 PM 35.1 °F 22.5 °F 24.1 °F 64% 29.69 in 10.0 mi South 26.5 mph 34.5 mph N/A   Clear
3:54 PM 36.0 °F 23.5 °F 25.0 °F 64% 29.66 in 10.0 mi South 27.6 mph 33.4 mph N/A   Clear
4:54 PM 35.1 °F 23.0 °F 25.0 °F 67% 29.63 in 10.0 mi South 24.2 mph 31.1 mph N/A   Clear
5:54 PM 34.0 °F 22.1 °F 26.1 °F 73% 29.62 in 10.0 mi South 21.9 mph - N/A   Clear
6:54 PM 36.0 °F 25.0 °F 26.1 °F 67% 29.62 in 10.0 mi South 20.7 mph 31.1 mph N/A   Clear
7:54 PM 36.0 °F 24.4 °F 27.0 °F 70% 29.59 in 10.0 mi South 23.0 mph - N/A   Clear
8:54 PM 37.0 °F 26.7 °F 27.0 °F 67% 29.57 in 10.0 mi South 19.6 mph - N/A   Clear
9:54 PM 35.1 °F 26.4 °F 27.0 °F 72% 29.60 in 10.0 mi South 12.7 mph - N/A   Clear
10:54 PM 35.1 °F 25.5 °F 26.1 °F 70% 29.60 in 10.0 mi SSW 15.0 mph - N/A   Clear
11:54 PM 36.0 °F 27.5 °F 27.0 °F 70% 29.62 in 10.0 mi SW 12.7 mph - N/A   Partly Cloudy